When you browse on this site, cookies collect data to enhance your experience and personalize the content and advertising you see.
Visit our Privacy Policy to learn more. By continuing to use the site, you agree to this use of cookies and data.
  • In Czech Republic
  • List of Countries
  • For 7 days
  • Water Temperature
  • Satellite Maps
  • Weather Map
  • Weather Widgets
  • user-avatar
    Login

    Hourly Weather Koniecbor

    Today, 18 February, Monday

    Time Temperature Precipitation Wind Pressure Humidity
    00:00 +3°C° 0 mm 2 mps 753 mmHg 97%
    01:00 +3°C° 0 mm 2 mps 753 mmHg 97%
    02:00 +4°C° 0 mm 1 mps 753 mmHg 97%
    03:00 +4°C° 0 mm 1 mps 753 mmHg 97%
    04:00 +4°C° 0 mm 1 mps 753 mmHg 97%
    05:00 +4°C° 0 mm 1 mps 753 mmHg 97%
    06:00 +4°C° 0 mm 1 mps 753 mmHg 96%
    07:00 +3°C° 0 mm 1 mps 754 mmHg 96%
    08:00 +3°C° 0 mm 0 mps 754 mmHg 96%
    09:00 +3°C° 0 mm 0 mps 754 mmHg 93%
    10:00 +4°C° 0 mm 0 mps 754 mmHg 90%
    11:00 +5°C° 0 mm 0 mps 754 mmHg 87%
    12:00 +6°C° 0 mm 1 mps 754 mmHg 83%
    13:00 +6°C° 0 mm 2 mps 754 mmHg 80%
    14:00 +7°C° 0 mm 2 mps 754 mmHg 77%
    15:00 +6°C° 0 mm 2 mps 753 mmHg 78%
    16:00 +5°C° 0 mm 3 mps 753 mmHg 79%
    17:00 +5°C° 0 mm 3 mps 752 mmHg 80%
    18:00 +4°C° 0 mm 3 mps 752 mmHg 82%
    19:00 +3°C° 0 mm 3 mps 752 mmHg 85%
    20:00 +3°C° 0 mm 3 mps 752 mmHg 87%
    21:00 +2°C° 0 mm 3 mps 752 mmHg 89%
    22:00 +2°C° 0 mm 3 mps 751 mmHg 91%
    23:00 +1°C° 0 mm 4 mps 751 mmHg 93%

    Tomorrow, 19 February, Tuesday

    Time Temperature Precipitation Wind Pressure Humidity
    00:00 +1°C° 0 mm 4 mps 751 mmHg 93%
    01:00 0°C° 0 mm 4 mps 750 mmHg 93%
    02:00 0°C° 0 mm 4 mps 750 mmHg 93%
    03:00 0°C° 0 mm 4 mps 750 mmHg 94%
    04:00 0°C° 0 mm 4 mps 749 mmHg 94%
    05:00 0°C° 0 mm 4 mps 748 mmHg 94%
    06:00 0°C° 0 mm 4 mps 748 mmHg 94%
    07:00 -1°C° 0 mm 4 mps 747 mmHg 93%
    08:00 -1°C° 0 mm 4 mps 747 mmHg 93%
    09:00 0°C° 0 mm 5 mps 746 mmHg 87%
    10:00 +1°C° 0 mm 5 mps 746 mmHg 81%
    11:00 +2°C° 0 mm 5 mps 745 mmHg 75%
    12:00 +5°C° 0 mm 5 mps 745 mmHg 70%
    13:00 +5°C° 0 mm 6 mps 745 mmHg 65%
    14:00 +7°C° 0 mm 6 mps 744 mmHg 60%
    15:00 +7°C° 0 mm 6 mps 744 mmHg 61%
    16:00 +6°C° 0 mm 5 mps 743 mmHg 63%
    17:00 +6°C° 0 mm 5 mps 743 mmHg 65%
    18:00 +5°C° 0 mm 5 mps 743 mmHg 69%
    19:00 +5°C° 0 mm 5 mps 743 mmHg 74%
    20:00 +4°C° 0 mm 4 mps 743 mmHg 79%
    21:00 +4°C° 0.4 mm 4 mps 743 mmHg 82%
    22:00 +4°C° 0.4 mm 4 mps 743 mmHg 86%
    23:00 +4°C° 0.4 mm 4 mps 743 mmHg 89%

    Day after tomorrow, 20 February, Wednesday

    Time Temperature Precipitation Wind Pressure Humidity
    00:00 +4°C° 0 mm 4 mps 743 mmHg 89%
    01:00 +3°C° 0 mm 4 mps 743 mmHg 89%
    02:00 +2°C° 0 mm 5 mps 743 mmHg 89%
    03:00 +2°C° 0 mm 5 mps 743 mmHg 88%
    04:00 +2°C° 0 mm 5 mps 743 mmHg 87%
    05:00 +2°C° 0 mm 6 mps 743 mmHg 86%
    06:00 +2°C° 0.1 mm 6 mps 743 mmHg 85%
    07:00 +2°C° 0.1 mm 6 mps 743 mmHg 84%
    08:00 +1°C° 0.1 mm 6 mps 743 mmHg 83%
    09:00 +2°C° 0.1 mm 6 mps 744 mmHg 79%
    10:00 +2°C° 0.1 mm 7 mps 744 mmHg 76%
    11:00 +2°C° 0.1 mm 7 mps 744 mmHg 72%
    12:00 +2°C° 0 mm 7 mps 745 mmHg 73%
    13:00 +2°C° 0 mm 7 mps 745 mmHg 74%
    14:00 +2°C° 0 mm 7 mps 745 mmHg 75%
    15:00 +2°C° 0 mm 7 mps 745 mmHg 76%
    16:00 +2°C° 0 mm 7 mps 745 mmHg 76%
    17:00 +2°C° 0 mm 7 mps 746 mmHg 77%
    18:00 +2°C° 0 mm 7 mps 746 mmHg 78%
    19:00 +2°C° 0 mm 7 mps 746 mmHg 80%
    20:00 +2°C° 0 mm 6 mps 747 mmHg 81%
    21:00 +1°C° 0 mm 6 mps 747 mmHg 82%
    22:00 +1°C° 0 mm 6 mps 747 mmHg 83%
    23:00 +1°C° 0 mm 6 mps 748 mmHg 85%

    21 February, Thursday

    Time Temperature Precipitation Wind Pressure Humidity
    00:00 +1°C° 0 mm 5 mps 748 mmHg 86%
    01:00 +1°C° 0 mm 4 mps 748 mmHg 87%
    02:00 +1°C° 0 mm 4 mps 748 mmHg 88%
    03:00 +2°C° 0.1 mm 3 mps 748 mmHg 90%
    04:00 +2°C° 0.1 mm 3 mps 748 mmHg 92%
    05:00 +2°C° 0.1 mm 3 mps 748 mmHg 93%
    06:00 +2°C° 0.4 mm 3 mps 748 mmHg 94%
    07:00 +3°C° 0.4 mm 2 mps 748 mmHg 96%
    08:00 +3°C° 0.4 mm 2 mps 748 mmHg 97%
    09:00 +3°C° 0.3 mm 2 mps 748 mmHg 96%
    10:00 +3°C° 0.3 mm 2 mps 748 mmHg 96%
    11:00 +3°C° 0.3 mm 2 mps 748 mmHg 95%
    12:00 +3°C° 0.3 mm 2 mps 748 mmHg 95%
    13:00 +3°C° 0.3 mm 2 mps 748 mmHg 95%
    14:00 +4°C° 0.3 mm 2 mps 748 mmHg 95%
    15:00 +3°C° 0.4 mm 2 mps 748 mmHg 94%
    16:00 +3°C° 0.4 mm 2 mps 748 mmHg 94%
    17:00 +2°C° 0.4 mm 2 mps 748 mmHg 94%
    18:00 +1°C° 0.2 mm 3 mps 749 mmHg 90%
    19:00 0°C° 0.2 mm 3 mps 749 mmHg 87%
    20:00 -1°C° 0.2 mm 4 mps 750 mmHg 84%
    21:00 -2°C° 0.1 mm 4 mps 751 mmHg 81%
    22:00 -2°C° 0.1 mm 4 mps 752 mmHg 79%
    23:00 -2°C° 0.1 mm 4 mps 752 mmHg 76%

    22 February, Friday

    Time Temperature Precipitation Wind Pressure Humidity
    00:00 -3°C° 0.1 mm 4 mps 753 mmHg 76%
    01:00 -3°C° 0.1 mm 4 mps 754 mmHg 77%
    02:00 -3°C° 0.1 mm 4 mps 755 mmHg 77%
    03:00 -4°C° 0 mm 4 mps 756 mmHg 76%
    04:00 -5°C° 0 mm 4 mps 757 mmHg 75%
    05:00 -5°C° 0 mm 4 mps 757 mmHg 73%
    06:00 -7°C° 0 mm 4 mps 759 mmHg 72%
    07:00 -7°C° 0 mm 4 mps 760 mmHg 71%
    08:00 -7°C° 0 mm 4 mps 761 mmHg 69%
    09:00 -7°C° 0 mm 4 mps 762 mmHg 64%
    10:00 -5°C° 0 mm 4 mps 762 mmHg 60%
    11:00 -4°C° 0 mm 4 mps 763 mmHg 55%
    12:00 -4°C° 0 mm 3 mps 764 mmHg 51%
    13:00 -2°C° 0 mm 3 mps 764 mmHg 46%
    14:00 -1°C° 0 mm 2 mps 765 mmHg 42%
    15:00 -1°C° 0 mm 2 mps 765 mmHg 43%
    16:00 +1°C° 0 mm 1 mps 765 mmHg 45%
    17:00 0°C° 0 mm 0 mps 766 mmHg 47%
    18:00 0°C° 0 mm 1 mps 766 mmHg 49%
    19:00 -1°C° 0 mm 1 mps 766 mmHg 51%
    20:00 -1°C° 0 mm 1 mps 767 mmHg 52%
    21:00 -1°C° 0 mm 1 mps 767 mmHg 53%
    22:00 -3°C° 0 mm 2 mps 767 mmHg 55%
    23:00 -3°C° 0 mm 2 mps 767 mmHg 56%

    23 February, Saturday

    Time Temperature Precipitation Wind Pressure Humidity
    00:00 -3°C° 0 mm 2 mps 767 mmHg 55%
    01:00 -4°C° 0 mm 3 mps 766 mmHg 55%
    02:00 -4°C° 0 mm 3 mps 766 mmHg 55%
    03:00 -4°C° 0 mm 4 mps 765 mmHg 54%
    04:00 -3°C° 0 mm 4 mps 765 mmHg 53%
    05:00 -3°C° 0 mm 4 mps 764 mmHg 52%
    06:00 -4°C° 0 mm 5 mps 763 mmHg 54%
    07:00 -4°C° 0 mm 5 mps 762 mmHg 56%
    08:00 -4°C° 0 mm 5 mps 762 mmHg 58%
    09:00 -2°C° 0 mm 5 mps 761 mmHg 62%
    10:00 -2°C° 0 mm 5 mps 760 mmHg 66%
    11:00 -1°C° 0 mm 5 mps 760 mmHg 70%
    12:00 0°C° 0 mm 5 mps 759 mmHg 75%
    13:00 +1°C° 0 mm 5 mps 758 mmHg 80%
    14:00 +2°C° 0 mm 5 mps 757 mmHg 84%
    15:00 +2°C° 0.1 mm 5 mps 757 mmHg 88%
    16:00 +3°C° 0.1 mm 4 mps 757 mmHg 91%
    17:00 +3°C° 0.1 mm 4 mps 756 mmHg 95%
    18:00 +1°C° 0 mm 4 mps 757 mmHg 95%
    19:00 +1°C° 0 mm 4 mps 757 mmHg 95%
    20:00 +1°C° 0 mm 4 mps 757 mmHg 95%
    21:00 +1°C° 0 mm 4 mps 757 mmHg 96%
    22:00 +1°C° 0 mm 3 mps 757 mmHg 96%
    23:00 +1°C° 0 mm 3 mps 757 mmHg 97%
    Show more